Location: Zagreb
(45.8000°N, 16.0000°E)
Time: 14:30:26
(UTC+02:00)

Vanguard 1 - Pass Details

Date: 14 August 2022
Orbit: 649 x 3832 km, 34.2° (Epoch: 25 September)

Event Time Altitude Azimuth Distance (km) Brightness Sun altitude
Rises 02:25:25 0° 195° (SSW) 4,908 - -26.8°
Reaches altitude 10° 02:29:03 10° 182° (S) 4,353 - -26.6°
Exits shadow 02:33:33 21° 160° (SSE) 4,049 12.8 -26.2°
Maximum altitude 02:38:35 25° 133° (SE) 4,254 13.1 -25.9°
Drops below altitude 10° 02:52:17 10° 88° (E) 6,443 14.6 -24.7°
Sets 02:59:20 0° 79° (ENE) 7,798 15.3 -24.1°
